Location: Barret
(44.2619°N, 5.7342°E)
Time: 02:18:29
(UTC+00:00)

Daily predictions for brighter satellites

Satellite Brightness Start Highest point End
(mag) Time Altitude Azimuth Time Altitude Azimuth Time Altitude Azimuth
Cosmos 2263 Rocket 4.3 03:01:26 21° NE 03:01:26 21° NE 03:03:30 10° NE
CZ-4C R/B 4.2 03:25:49 17° SE 03:27:19 20° ESE 03:31:09 10° ENE
ATLAS 3B R/B 4.0 03:30:35 30° NNE 03:32:14 33° NE 03:38:35 10° E
Cosmos 1943 4.2 03:36:00 42° ESE 03:36:00 42° ESE 03:39:54 10° SE
Lacrosse 4 Rocket 3.8 03:38:11 21° ESE 03:38:11 21° ESE 03:39:59 10° ESE
ALOS 3.7 03:50:31 10° NNE 03:53:16 32° NE 03:53:16 32° NE
NOSS 3-4 (A) 3.3 04:00:50 84° E 04:00:50 84° E 04:07:00 10° NE
NOSS 3-2 (C) 3.9 04:00:08 68° W 04:00:45 71° WSW 04:09:17 10° SSE
NOSS 3-4 (C) 3.3 04:00:54 83° ESE 04:00:54 83° ESE 04:07:08 10° NE
CENTAUR R/B 3.1 04:01:36 63° WNW 04:02:46 70° WSW 04:11:34 10° SSE
Milstar 3 Cent rocket 4.3 04:00:16 22° SSW 04:02:55 27° SSE 04:12:06 10° ESE
Cosmos 158 Rocket 4.4 04:10:38 51° NNE 04:11:21 56° ENE 04:16:15 10° SE
SL-4 R/B 4.0 04:15:02 20° NE 04:15:02 20° NE 04:16:33 10° NE
Cosmos 1151 Rocket 3.6 04:17:01 52° SE 04:17:01 52° SE 04:20:28 10° SSE
Cosmos 1844 Rocket 4.4 04:11:52 10° SSE 04:16:49 33° ESE 04:21:50 10° NE
Cosmos 1782 4.1 04:16:35 33° NE 04:17:37 39° ENE 04:21:24 10° SSE
ATLAS 2AS CENTAUR R/B 3.0 04:15:30 28° SSW 04:20:15 89° SE 04:28:10 10° NE
ERS-2 4.0 04:17:43 10° SSE 04:19:17 24° SSE 04:19:17 24° SSE
Cosmos 1680 Rocket 4.1 04:20:02 29° N 04:22:37 57° ENE 04:27:49 10° SE
ATLAS 5 CENTAUR R/B 4.2 04:31:19 13° NNE 04:31:19 13° NNE 04:31:42 10° NNE
Atlas Centaur 2 4.1 04:26:41 17° SSW 04:29:06 21° S 04:33:17 10° SE
RESURS DK-1 3.5 04:27:00 10° S 04:30:56 44° ESE 04:34:55 10° NE
Lacrosse 5 1.7 04:32:03 73° W 04:32:27 80° NW 04:37:33 10° NE
ATLAS CENTAUR R/B 2.6 04:32:06 29° NNE 04:32:48 31° NE 04:36:19 10° ESE
ADEOS 3.4 04:29:42 10° NNE 04:34:57 81° WNW 04:40:09 10° SSW
Cosmos 1328 Rocket 3.4 04:35:40 67° NNW 04:36:15 88° W 04:40:41 10° S
Cosmos 2263 Rocket 2.9 04:43:11 35° NW 04:43:11 35° NW 04:47:33 10° NNE
Cosmos 2112 Rocket 4.2 04:38:53 22° NNW 04:42:25 72° ENE 04:47:44 10° SSE
Gbstr 26 Del rocket 2.7 04:43:34 67° NNE 04:43:38 68° NNE 04:47:30 10° ESE
SJ 16-02 2.1 04:45:52 38° NNW 04:45:52 38° NNW 04:48:54 10° N
Meteor 1-4 Rocket 4.1 04:46:48 24° S 04:46:48 24° S 04:48:17 10° S
Cosmos 1898 Rocket 3.6 04:46:43 10° SSW 04:52:01 79° ESE 04:57:22 10° NNE
Meteor 1-26 Rocket 4.2 04:48:59 14° NNW 04:53:54 63° W 04:59:23 10° S
FALCON 9 DEB 3.3 04:56:35 53° NNE 04:56:35 53° NNE 04:59:16 10° NE
FALCON 9 DEB 3.4 04:56:45 49° NNE 04:56:45 49° NNE 04:59:22 10° NE
Cosmos 1743 Rocket 4.1 04:55:10 10° S 04:59:32 62° E 05:03:59 10° NNE
FENGYUN 3A 3.9 04:54:37 10° N 04:59:45 44° WNW 05:04:49 10° SW
Cosmos 1408 Rocket 3.5 04:57:07 10° SSW 05:01:32 66° W 05:05:59 10° N
NOSS 7 (H) 4.4 05:01:45 19° SSW 05:04:01 70° SE 05:06:59 10° NE
COSMO-SKYMED 1 2.5 05:00:39 10° S 05:04:57 66° WSW 05:07:59 19° NNW
Cosmos 2181 Rocket 4.0 04:59:01 10° NNW 05:05:01 53° W 05:10:55 10° SSW
Cosmos 1709 Rocket 4.5 05:00:32 10° SW 05:06:21 37° WNW 05:12:14 10° N
Cosmos 1937 Rocket 3.5 05:03:58 10° SSW 05:09:06 80° ESE 05:14:19 10° NNE
Meteor 2-3 Rocket 4.1 05:08:16 10° SW 05:13:38 41° WNW 05:19:07 10° N
Lacrosse 4 Rocket 2.6 05:14:32 26° WSW 05:14:32 26° WSW 05:18:08 10° SSW
CZ-4C R/B 2.0 05:11:05 16° SW 05:15:01 62° NW 05:20:56 10° NNE
Cosmos 2154 Rocket 4.3 05:09:10 10° S 05:15:20 70° E 05:21:34 10° NNE
MOS 1 Rocket 3.8 05:10:36 10° SSE 05:15:20 67° ENE 05:20:26 10° N
Cosmos 1943 4.4 05:17:53 22° W 05:17:53 22° W 05:22:02 10° SSW
Cosmos 1689 Rocket 2.1 05:15:13 10° S 05:18:00 50° W 05:18:12 49° W
CZ-4B R/B 3.1 05:13:59 10° N 05:18:27 62° WNW 05:22:45 10° SSW
FALCON 9 DEB 3.3 05:18:33 40° NW 05:18:57 43° NNW 05:22:04 10° NE
Meteor 1-10 Rocket 4.3 05:15:52 10° N 05:21:28 80° E 05:27:05 10° SSE
SAR-Lupe-4 4.1 05:18:33 10° SSW 05:21:50 35° W 05:22:38 31° WNW
Aureole 2 Rocket 2.3 05:20:37 10° S 05:23:06 56° ESE 05:25:37 10° NNE
ATLAS 3B R/B 2.8 05:17:52 17° NW 05:23:27 69° WSW 05:30:37 10° SSE
Cosmos 1862 3.2 05:22:14 10° SSW 05:26:18 79° W 05:30:22 10° N
Genesis I 3.3 05:24:54 16° WSW 05:27:45 50° NW 05:31:32 10° NNE
YAOGAN 6 3.2 05:25:41 10° NNE 05:29:09 57° E 05:32:35 10° S
deb Chang Zheng 4 4.4 05:28:21 10° N 05:32:04 28° WNW 05:35:47 10° SW
ALOS 3.5 05:28:46 10° NNW 05:31:45 20° WNW 05:31:45 20° WNW
Cosmos 858 Rocket 4.4 05:28:15 10° SSW 05:33:25 65° WNW 05:38:39 10° NNE
Cosmos 2327 Rocket 4.4 05:28:38 10° S 05:34:44 82° W 05:40:52 10° N
Cosmos 990 Rocket 4.4 05:29:56 10° SW 05:34:51 40° WNW 05:39:49 10° N
Cosmos 2074 Rocket 4.1 05:30:09 10° SSW 05:36:11 54° WNW 05:42:16 10° N
PSLV R/B 3.6 05:34:08 10° N 05:38:01 82° WNW 05:41:46 10° SSW
ASTRO F (AKARI) 4.2 05:36:54 10° N 05:39:56 53° WNW 05:43:00 10° SSW
BREEZE M DEB (TANK) 3.0 05:33:20 10° SW 05:41:46 70° SSE 05:44:36 10° ENE
USA 305 4.4 05:38:55 14° NW 05:41:49 26° NNE 05:45:28 10° ENE
Cosmos 405 Rocket 2.7 05:38:32 10° SSW 05:42:09 54° WNW 05:45:51 10° N
SL-24 DEB 4.4 05:37:39 10° S 05:42:24 84° E 05:47:13 10° N
EO 1 Delta rocket 4.1 05:41:17 10° S 05:46:16 51° W 05:50:47 10° NNW
Cosmos 1295 Rocket 4.4 05:41:37 10° S 05:47:41 82° W 05:53:49 10° N
Cosmos 1812 2.9 05:44:08 10° NNW 05:47:50 47° W 05:51:32 10° SSW
USA 306 4.3 05:47:01 12° NW 05:50:19 28° NNE 05:54:03 10° ENE
Cosmos 2228 Rocket 3.2 05:46:06 10° NNW 05:50:23 51° W 05:54:37 10° S
Cosmos 1633 Rocket 4.4 05:48:09 10° SSE 05:52:20 43° E 05:56:31 10° NNE
NOSS 3-4 (A) 4.5 05:48:19 14° W 05:52:24 26° NNW 05:57:42 10° NNE
NOSS 3-4 (C) 4.5 05:48:24 13° W 05:52:31 26° NNW 05:57:50 10° NNE
SL-4 R/B 3.1 05:50:37 13° NW 05:53:23 28° N 05:56:34 10° ENE
Cosmos 1782 4.4 05:52:15 14° WNW 05:53:35 16° W 05:56:07 10° SW
Cosmos 2184 Rocket 4.4 05:47:53 10° SW 05:53:48 42° WNW 05:59:50 10° N
Cosmos 1356 3.8 05:54:27 10° S 05:57:49 66° E 06:01:14 10° NNE
USA 234 3.5 05:52:13 10° NE 05:58:47 78° SE 06:05:20 10° SW
FALCON 9 DEB 4.2 05:56:58 14° WNW 05:59:01 25° NNW 06:01:45 10° NE
Cosmos 1844 Rocket 3.1 05:55:18 10° SW 06:00:35 40° WNW 06:05:57 10° NNE
Cosmos 1707 Rocket 3.5 06:03:06 10° N 06:07:28 89° WSW 06:11:47 10° S
EXPRESS MD2 4.3 06:03:36 11° WNW 06:07:31 73° NNE 06:15:54 10° ESE
COSMOS 2455 2.8 06:02:40 10° SW 06:08:41 72° WNW 06:14:44 10° NNE
RESURS DK-1 3.7 06:06:02 10° W 06:09:11 20° NW 06:12:21 10° N
MOS 1-B 4.3 06:03:30 10° N 06:09:18 71° WNW 06:15:04 10° SSW
BREEZE-M (TANK) 3.6 06:02:55 10° SW 06:10:26 53° SSE 06:13:05 10° ENE
ATLAS CENTAUR R/B 2.4 06:08:23 10° WNW 06:11:34 25° WSW 06:14:52 10° S
BREEZE-M DEB 3.8 06:03:19 10° WNW 06:11:59 49° SW 06:14:53 10° SSE
ATLAS 2AS CENTAUR R/B 3.8 06:05:17 10° W 06:12:13 31° NNW 06:19:00 10° NNE
NOAA 6 4.1 06:07:23 10° N 06:12:24 57° WNW 06:17:23 10° SSW
Cosmos 1844 4.1 06:09:22 10° SW 06:14:32 38° NW 06:19:44 10° NNE
H-2A R/B 3.9 06:11:44 10° NNW 06:14:54 24° WNW 06:18:02 10° WSW
Lacrosse 5 3.0 06:11:51 10° WNW 06:16:05 26° NNW 06:20:21 10° NE
Atlas Centaur 2 4.2 06:13:34 10° SW 06:17:11 17° SSW 06:20:23 10° SSE
CZ-4B DEB 4.4 06:12:15 10° N 06:17:33 52° WNW 06:22:49 10° SW
Cosmos 372 Rocket 4.1 06:12:55 10° SW 06:17:52 51° WNW 06:22:51 10° NNE
Cosmos 1437 Rocket 3.3 06:14:30 10° NNW 06:17:58 35° W 06:21:24 10° SSW
Okean O Rocket 1.6 06:16:44 10° N 06:21:10 76° WNW 06:25:37 10° SSW
Geosat 4.3 06:16:12 10° SE 06:21:11 72° ENE 06:26:13 10° NNW
